New York JFK, NY

4:52 PM EDT on June 24, 2017 (GMT -0400)
Kennedy International

Weather History for KJFK - November, 2011

Change the Weather History Date:

Tuesday, November 8, 2011

  Actual Average Record
Temperature  
Mean Temperature 58 °F 50 °F  
Max Temperature 69 °F 57 °F 71 °F (1975)
Min Temperature 47 °F 43 °F 28 °F (1976)
Degree Days  
Heating Degree Days 7 15  
Month to date heating degree days 128 113  
Since 1 July heating degree days 379 412  
Cooling Degree Days 0 0  
Month to date cooling degree days 0 0  
Year to date cooling degree days 1267 1005  
Growing Degree Days 8 (Base 50)    
Moisture  
Dew Point 46 °F    
Average Humidity 65    
Maximum Humidity 86    
Minimum Humidity 44    
Precipitation  
Precipitation 0.00 in 0.10 in 3.92 in (1972)
Month to date precipitation 0.00 0.84  
Year to date precipitation 49.41 36.92  
Snow  
Snow 0.00 in 0.00 in 0.30 in (2012)
Month to date snowfall 0.0 0.0  
Since 1 July snowfall 1.5 0.0  
Snow Depth 0.00 in    
Sea Level Pressure  
Sea Level Pressure 30.25 in    
Wind  
Wind Speed 3 mph (SSE)    
Max Wind Speed 6 mph    
Max Gust Speed 6 mph    
Visibility 10 miles    
Events      
T = Trace of Precipitation, MM = Missing Value Source: NWS Daily Summary

Daily Weather History Graph

Daily Weather History Graph

Search for Another Location

Airport or City:

Trip Planner

Search our weather history database for the weather conditions in past years. The results will help you decide how hot, cold, wet, or windy it might be!

Date:

Astronomy

Nov. 08, 2011 Rise Set
Actual Time 6:33 AM EST 4:44 PM EST
Civil Twilight 6:04 AM EST 5:12 PM EST
Nautical Twilight 5:31 AM EST 5:45 PM EST
Astronomical Twilight 4:59 AM EST 6:17 PM EST
Moon 3:22 PM EST (11/8) 4:29 AM EST (11/8)
Length of Visible Light 11h 08m
Length of Day
10h 10m
Waxing Gibbous, 96% of the Moon is Illuminated
Nov 8
Waxing Gibbous
Nov 10
Full
Nov 18
Last Quarter
Nov 25
New
Dec 2
First Quarter

Hourly Weather History & Observations

Time (EST) Temp. Dew Point Humidity Pressure Visibility Wind Dir Wind Speed Gust Speed Precip Events Conditions
12:51 AM 48.9 °F 44.1 °F 83% 30.26 in 10.0 mi Calm Calm - N/A   Clear
1:51 AM 48.9 °F 43.0 °F 80% 30.25 in 10.0 mi WSW 3.5 mph - N/A   Clear
2:51 AM 48.9 °F 45.0 °F 86% 30.25 in 10.0 mi WSW 5.8 mph - N/A   Clear
3:51 AM 48.0 °F 45.0 °F 89% 30.25 in 9.0 mi WSW 3.5 mph - N/A   Clear
4:51 AM 48.9 °F 44.1 °F 83% 30.25 in 10.0 mi Calm Calm - N/A   Clear
5:51 AM 48.0 °F 43.0 °F 83% 30.26 in 10.0 mi Calm Calm - N/A   Clear
6:51 AM 48.0 °F 44.1 °F 86% 30.26 in 10.0 mi SW 4.6 mph - N/A   Scattered Clouds
7:51 AM 54.0 °F 46.0 °F 75% 30.28 in 10.0 mi Calm Calm - N/A   Partly Cloudy
8:51 AM 59.0 °F 46.0 °F 62% 30.28 in 10.0 mi Calm Calm - N/A   Scattered Clouds
9:51 AM 64.9 °F 44.1 °F 47% 30.28 in 10.0 mi Calm Calm - N/A   Partly Cloudy
10:51 AM 66.0 °F 44.1 °F 45% 30.27 in 10.0 mi ENE 4.6 mph - N/A   Clear
11:51 AM 69.1 °F 46.0 °F 44% 30.25 in 10.0 mi East 5.8 mph - N/A   Clear
12:51 PM 68.0 °F 46.9 °F 47% 30.24 in 10.0 mi South 6.9 mph - N/A   Clear
1:51 PM 66.9 °F 46.9 °F 49% 30.23 in 10.0 mi SSE 6.9 mph - N/A   Clear
2:51 PM 64.0 °F 46.9 °F 54% 30.23 in 10.0 mi SSE 8.1 mph - N/A   Clear
3:51 PM 62.1 °F 46.9 °F 58% 30.23 in 10.0 mi SSE 4.6 mph - N/A   Clear
4:51 PM 55.9 °F 48.0 °F 75% 30.23 in 10.0 mi SSW 3.5 mph - N/A   Clear
5:52 PM 55.9 °F 46.0 °F 69% 30.24 in 10.0 mi South 3.5 mph - N/A   Clear
6:51 PM 55.9 °F 46.0 °F 69% 30.25 in 10.0 mi South 3.5 mph - N/A   Clear
7:51 PM 55.0 °F 48.0 °F 77% 30.24 in 10.0 mi Calm Calm - N/A   Clear
8:51 PM 54.0 °F 48.9 °F 83% 30.25 in 10.0 mi SE 3.5 mph - N/A   Clear
9:51 PM 53.1 °F 48.0 °F 83% 30.25 in 10.0 mi Calm Calm - N/A   Clear
10:51 PM 51.1 °F 46.0 °F 83% 30.24 in 10.0 mi NE 3.5 mph - N/A   Clear
11:51 PM 48.9 °F 46.0 °F 90% 30.23 in 8.0 mi ESE 4.6 mph - N/A   Clear